| time (UTC) | temp F | wind direction | speed MPH | gust MPH | rain 1hr in | rain 24hr in | rain mn in | humidity % | barometer mb |
| 20260903110146 | 74 | 251 | 4.0 | 8.0 | 0.00 | 0.00 | 0.00 | 91 | 1005.9 |
| 20260903110104 | 73 | 234 | 5.0 | 9.0 | 0.00 | 0.00 | 0.00 | 91 | 1005.9 |
| 20260903104503 | 73 | 203 | 4.0 | 7.0 | 0.00 | 0.00 | 0.00 | 92 | 1005.6 |
| 20260903103939 | 73 | 176 | 3.0 | 6.0 | 0.00 | 0.00 | 0.00 | 92 | 1005.6 |
| 20260903103102 | 72 | 187 | 4.0 | 7.0 | 0.00 | 0.00 | 0.00 | 92 | 1005.7 |
| 20260903102928 | 73 | 198 | 2.0 | 9.0 | 0.00 | 0.00 | 0.00 | 92 | 1005.7 |
| 20260903101911 | 72 | 213 | 4.0 | 9.0 | 0.00 | 0.00 | 0.00 | 92 | 1005.9 |
| 20260903100910 | 72 | 146 | 3.0 | 7.0 | 0.00 | 0.00 | 0.00 | 93 | 1005.6 |
| 20260903100103 | 71 | 120 | 4.0 | 8.0 | 0.00 | 0.00 | 0.00 | 93 | 1005.4 |
| 20260903095910 | 72 | 97 | 3.0 | 5.0 | 0.00 | 0.00 | 0.00 | 93 | 1005.4 |
| 20260903094503 | 72 | 120 | 3.0 | 6.0 | 0.00 | 0.00 | 0.00 | 92 | 1005.7 |
| 20260903093648 | 72 | 123 | 1.0 | 4.0 | 0.00 | 0.00 | 0.00 | 93 | 1005.9 |
| 20260903093115 | 71 | 154 | 2.0 | 5.0 | 0.00 | 0.00 | 0.00 | 93 | 1006.0 |
| 20260903091459 | 71 | 127 | 2.0 | 4.0 | 0.00 | 0.00 | 0.00 | 93 | 1005.6 |
| 20260903090520 | 71 | 112 | 1.0 | 2.0 | 0.00 | 0.00 | 0.00 | 94 | 1005.4 |
| 20260903085459 | 71 | 77 | 0.0 | 1.0 | 0.00 | 0.00 | 0.00 | 93 | 1005.3 |
| 20260903084502 | 71 | 77 | 1.0 | 4.0 | 0.00 | 0.00 | 0.00 | 93 | 1005.4 |
| 20260903084444 | 71 | 77 | 1.0 | 3.0 | 0.00 | 0.00 | 0.00 | 93 | 1005.4 |
| 20260903083428 | 71 | 72 | 1.0 | 3.0 | 0.00 | 0.00 | 0.00 | 93 | 1005.2 |
| 20260903083103 | 71 | 78 | 2.0 | 3.0 | 0.00 | 0.00 | 0.00 | 94 | 1005.3 |
| 20260903081508 | 70 | 75 | 1.0 | 2.0 | 0.00 | 0.00 | 0.00 | 93 | 1005.4 |
| 20260903081336 | 71 | 74 | 1.0 | 1.0 | 0.00 | 0.00 | 0.00 | 93 | 1005.4 |
| 20260903080107 | 70 | 75 | 0.0 | 3.0 | 0.00 | 0.00 | 0.00 | 94 | 1005.7 |
| 20260903075240 | 71 | 75 | 0.0 | 1.0 | 0.00 | 0.00 | 0.00 | 95 | 1005.5 |
| 20260903074502 | 70 | 75 | 0.0 | 2.0 | 0.00 | 0.05 | 0.00 | 94 | 1005.7 |
| 20260903074257 | 71 | 75 | 0.0 | 2.0 | 0.00 | 0.00 | 0.00 | 94 | 1005.6 |
| 20260903073244 | 71 | 75 | 0.0 | 2.0 | 0.00 | 0.00 | 0.00 | 93 | 1005.6 |
| 20260903073105 | 71 | 75 | 1.0 | 3.0 | 0.00 | 0.05 | 0.00 | 93 | 1005.7 |
| 20260903072306 | 71 | 75 | 0.0 | 0.0 | 0.00 | 0.01 | 0.00 | 94 | 1005.7 |
| 20260903071503 | 71 | 75 | 0.0 | 2.0 | 0.00 | 0.05 | 0.00 | 94 | 1005.8 |
| 20260903071251 | 71 | 75 | 0.0 | 1.0 | 0.00 | 0.03 | 0.00 | 94 | 1005.8 |
| 20260903070248 | 71 | 75 | 0.0 | 0.0 | 0.00 | 0.05 | 0.00 | 94 | 1005.8 |
| 20260903064503 | 71 | 74 | 2.0 | 3.0 | 0.00 | 0.12 | 0.00 | 93 | 1005.8 |
| 20260903063103 | 72 | 72 | 0.0 | 0.0 | 0.00 | 0.12 | 0.00 | 93 | 1006.1 |
| 20260903062955 | 72 | 72 | 0.0 | 0.0 | 0.00 | 0.10 | 0.00 | 93 | 1006.0 |
| 20260903061958 | 72 | 72 | 0.0 | 0.0 | 0.00 | 0.12 | 0.00 | 92 | 1006.0 |
| 20260903061503 | 72 | 72 | 0.0 | 0.0 | 0.00 | 0.12 | 0.00 | 93 | 1006.1 |
| 20260903060922 | 72 | 72 | 0.0 | 0.0 | 0.00 | 0.12 | 0.00 | 92 | 1006.1 |
| 20260903055907 | 73 | 72 | 0.0 | 0.0 | 0.00 | 0.12 | 0.00 | 92 | 1006.0 |
| 20260903054923 | 73 | 72 | 0.0 | 2.0 | 0.00 | 0.13 | 0.00 | 92 | 1005.9 |
| 20260903054503 | 72 | 81 | 1.0 | 2.0 | 0.00 | 0.13 | 0.00 | 92 | 1006.0 |
| 20260903053104 | 72 | 81 | 0.0 | 1.0 | 0.00 | 0.13 | 0.00 | 92 | 1006.1 |
| 20260903052805 | 73 | 81 | 0.0 | 0.0 | 0.00 | 0.13 | 0.00 | 92 | 1006.0 |
| 20260903051739 | 73 | 81 | 0.0 | 1.0 | 0.00 | 0.13 | 0.00 | 92 | 1006.0 |
| 20260903051503 | 72 | 81 | 0.0 | 2.0 | 0.00 | 0.13 | 0.00 | 92 | 1006.0 |
| 20260903045716 | 73 | 81 | 0.0 | 0.0 | 0.00 | 0.13 | 0.13 | 91 | 1006.1 |
| 20260903044507 | 73 | 81 | 1.0 | 2.0 | 0.00 | 0.13 | 0.13 | 91 | 1006.2 |
| 20260903043513 | 74 | 81 | 0.0 | 2.0 | 0.00 | 0.13 | 0.13 | 90 | 1006.1 |
| 20260903043103 | 73 | 81 | 1.0 | 2.0 | 0.00 | 0.13 | 0.13 | 90 | 1006.3 |
| 20260903042457 | 74 | 81 | 1.0 | 2.0 | 0.00 | 0.13 | 0.13 | 91 | 1006.2 |
| 20260903041518 | 73 | 86 | 1.0 | 1.0 | 0.00 | 0.13 | 0.13 | 90 | 1006.2 |
| 20260903041501 | 73 | 86 | 2.0 | 2.0 | 0.00 | 0.13 | 0.13 | 90 | 1006.4 |
| 20260903040453 | 75 | 86 | 0.0 | 0.0 | 0.00 | 0.13 | 0.13 | 89 | 1006.3 |
| 20260903035423 | 74 | 86 | 0.0 | 0.0 | 0.00 | 0.13 | 0.13 | 89 | 1006.5 |
| 20260903034503 | 74 | 86 | 0.0 | 1.0 | 0.00 | 0.13 | 0.13 | 88 | 1006.5 |
| 20260903033332 | 75 | 86 | 1.0 | 2.0 | 0.00 | 0.13 | 0.13 | 88 | 1006.4 |
| 20260903033103 | 75 | 86 | 2.0 | 2.0 | 0.00 | 0.13 | 0.13 | 88 | 1006.5 |
| 20260903032323 | 76 | 86 | 1.0 | 2.0 | 0.00 | 0.13 | 0.13 | 87 | 1006.4 |
| 20260903031502 | 76 | 89 | 2.0 | 3.0 | 0.00 | 0.13 | 0.13 | 86 | 1006.5 |
| 20260903031250 | 76 | 89 | 2.0 | 2.0 | 0.00 | 0.13 | 0.13 | 86 | 1006.4 |
| 20260903030310 | 76 | 98 | 1.0 | 2.0 | 0.00 | 0.13 | 0.13 | 86 | 1006.4 |
| 20260903024502 | 76 | 91 | 1.0 | 3.0 | 0.00 | 0.13 | 0.13 | 87 | 1006.5 |
| 20260903024130 | 76 | 90 | 1.0 | 2.0 | 0.00 | 0.13 | 0.13 | 86 | 1006.4 |
| 20260903023151 | 76 | 90 | 1.0 | 1.0 | 0.00 | 0.13 | 0.13 | 86 | 1006.4 |
| 20260903023124 | 75 | 90 | 2.0 | 2.0 | 0.00 | 0.13 | 0.13 | 87 | 1006.5 |
| 20260903022124 | 75 | 89 | 0.0 | 1.0 | 0.00 | 0.13 | 0.13 | 88 | 1006.3 |
| 20260903021503 | 75 | 89 | 1.0 | 2.0 | 0.00 | 0.13 | 0.13 | 88 | 1006.4 |
| 20260903021112 | 76 | 89 | 1.0 | 1.0 | 0.00 | 0.13 | 0.13 | 88 | 1006.3 |
| 20260903020040 | 76 | 89 | 0.0 | 0.0 | 0.00 | 0.13 | 0.13 | 88 | 1006.3 |
| 20260903015047 | 76 | 89 | 0.0 | 1.0 | 0.00 | 0.13 | 0.13 | 88 | 1006.2 |
| 20260903014503 | 76 | 89 | 1.0 | 2.0 | 0.00 | 0.13 | 0.13 | 88 | 1006.2 |
| 20260903014050 | 77 | 89 | 0.0 | 1.0 | 0.00 | 0.13 | 0.13 | 88 | 1006.2 |
| 20260903013103 | 78 | 89 | 0.0 | 0.0 | 0.00 | 0.13 | 0.13 | 84 | 1006.2 |
| 20260903011854 | 79 | 89 | 0.0 | 0.0 | 0.00 | 0.13 | 0.13 | 83 | 1006.1 |
| 20260903011502 | 79 | 89 | 0.0 | 0.0 | 0.00 | 0.13 | 0.13 | 83 | 1005.9 |
| 20260903010907 | 80 | 89 | 0.0 | 0.0 | 0.00 | 0.13 | 0.13 | 80 | 1005.9 |
| 20260903005842 | 80 | 89 | 0.0 | 0.0 | 0.00 | 0.13 | 0.13 | 80 | 1005.8 |
| 20260903004822 | 81 | 79 | 0.0 | 1.0 | 0.00 | 0.13 | 0.13 | 78 | 1005.7 |
| 20260903004502 | 82 | 79 | 0.0 | 1.0 | 0.00 | 0.13 | 0.13 | 77 | 1005.7 |
| 20260903003748 | 82 | 79 | 0.0 | 0.0 | 0.00 | 0.13 | 0.13 | 76 | 1005.7 |
| 20260903003106 | 83 | 79 | 1.0 | 2.0 | 0.00 | 0.13 | 0.13 | 74 | 1005.7 |
| 20260903002734 | 83 | 77 | 0.0 | 1.0 | 0.00 | 0.13 | 0.13 | 73 | 1005.7 |
| 20260903001746 | 84 | 78 | 0.0 | 1.0 | 0.00 | 0.13 | 0.13 | 74 | 1005.8 |
| 20260903001502 | 84 | 78 | 0.0 | 2.0 | 0.00 | 0.13 | 0.13 | 74 | 1005.8 |
| 20260903000104 | 84 | 79 | 0.0 | 2.0 | 0.00 | 0.13 | 0.13 | 75 | 1005.8 |
| 20260902235612 | 85 | 79 | 0.0 | 2.0 | 0.00 | 0.13 | 0.13 | 74 | 1005.8 |
| 20260902234559 | 85 | 84 | 2.0 | 4.0 | 0.00 | 0.13 | 0.13 | 72 | 1005.8 |
| 20260902234507 | 85 | 85 | 1.0 | 5.0 | 0.00 | 0.13 | 0.13 | 71 | 1005.9 |
| 20260902233620 | 86 | 83 | 2.0 | 4.0 | 0.00 | 0.13 | 0.13 | 69 | 1005.8 |
| 20260902233103 | 85 | 71 | 2.0 | 3.0 | 0.00 | 0.13 | 0.13 | 69 | 1005.9 |
| 20260902232603 | 86 | 98 | 1.0 | 4.0 | 0.00 | 0.13 | 0.13 | 68 | 1005.9 |
| 20260902231623 | 86 | 113 | 1.0 | 4.0 | 0.00 | 0.13 | 0.13 | 66 | 1005.9 |
| 20260902231502 | 86 | 113 | 1.0 | 5.0 | 0.00 | 0.13 | 0.13 | 66 | 1006.0 |
| 20260902230605 | 87 | 116 | 0.0 | 3.0 | 0.00 | 0.13 | 0.13 | 68 | 1006.0 |
| 20260902230104 | 86 | 91 | 0.0 | 5.0 | 0.00 | 0.13 | 0.13 | 66 | 1006.0 |
| 20260902225610 | 86 | 103 | 2.0 | 4.0 | 0.00 | 0.13 | 0.13 | 67 | 1006.0 |
| 20260902224505 | 86 | 68 | 3.0 | 5.0 | 0.00 | 0.13 | 0.13 | 68 | 1006.0 |
| 20260902223106 | 86 | 79 | 1.0 | 5.0 | 0.00 | 0.13 | 0.13 | 67 | 1006.0 |
| 20260902222235 | 87 | 74 | 0.0 | 5.0 | 0.00 | 0.13 | 0.13 | 68 | 1005.9 |
| 20260902220004 | 86 | 129 | 2.0 | 6.0 | 0.00 | 0.13 | 0.13 | 65 | 1006.1 |
| 20260902215002 | 87 | 68 | 1.0 | 3.0 | 0.00 | 0.13 | 0.13 | 66 | 1006.0 |
| 20260902214603 | 87 | 108 | 1.0 | 4.0 | 0.00 | 0.13 | 0.13 | 64 | 1006.2 |
| 20260902213940 | 88 | 262 | 0.0 | 6.0 | 0.00 | 0.13 | 0.13 | 66 | 1006.2 |
| 20260902213002 | 87 | 207 | 1.0 | 7.0 | 0.00 | 0.13 | 0.13 | 65 | 1006.3 |
| 20260902211825 | 87 | 86 | 0.0 | 4.0 | 0.00 | 0.13 | 0.13 | 64 | 1006.3 |
| 20260902211608 | 87 | 32 | 0.0 | 4.0 | 0.00 | 0.13 | 0.13 | 65 | 1006.4 |
| 20260902210004 | 85 | 102 | 2.0 | 7.0 | 0.00 | 0.13 | 0.13 | 68 | 1006.5 |
| 20260902205602 | 86 | 118 | 1.0 | 6.0 | 0.00 | 0.13 | 0.13 | 67 | 1006.6 |
| 20260902204605 | 85 | 74 | 0.0 | 7.0 | 0.00 | 0.13 | 0.13 | 67 | 1006.6 |
| 20260902203507 | 85 | 166 | 1.0 | 6.0 | 0.00 | 0.13 | 0.13 | 67 | 1006.5 |
| 20260902203003 | 84 | 76 | 1.0 | 7.0 | 0.00 | 0.13 | 0.13 | 68 | 1006.5 |
| 20260902202449 | 84 | 59 | 3.0 | 6.0 | 0.00 | 0.13 | 0.13 | 68 | 1006.4 |
| 20260902201607 | 84 | 94 | 4.0 | 7.0 | 0.00 | 0.13 | 0.13 | 70 | 1006.5 |
| 20260902201454 | 84 | 94 | 3.0 | 7.0 | 0.00 | 0.13 | 0.13 | 71 | 1006.5 |
| 20260902200419 | 84 | 79 | 3.0 | 7.0 | 0.00 | 0.13 | 0.13 | 70 | 1006.7 |
| 20260902200003 | 84 | 69 | 3.0 | 8.0 | 0.00 | 0.13 | 0.13 | 70 | 1006.8 |
| 20260902195415 | 84 | 64 | 1.0 | 4.0 | 0.00 | 0.13 | 0.13 | 69 | 1006.9 |
| 20260902194604 | 84 | 59 | 2.0 | 5.0 | 0.00 | 0.13 | 0.13 | 69 | 1007.2 |
| 20260902194432 | 84 | 89 | 1.0 | 5.0 | 0.00 | 0.13 | 0.13 | 69 | 1007.2 |
| 20260902193414 | 84 | 12 | 1.0 | 6.0 | 0.00 | 0.13 | 0.13 | 70 | 1007.2 |
| 20260902193003 | 83 | 103 | 2.0 | 7.0 | 0.00 | 0.13 | 0.13 | 68 | 1007.3 |
| 20260902192404 | 84 | 79 | 1.0 | 6.0 | 0.00 | 0.13 | 0.13 | 69 | 1007.3 |
| 20260902191603 | 83 | 133 | 1.0 | 4.0 | 0.00 | 0.13 | 0.13 | 69 | 1007.3 |
| 20260902191331 | 83 | 139 | 1.0 | 6.0 | 0.00 | 0.13 | 0.13 | 68 | 1007.3 |
| 20260902190259 | 83 | 40 | 2.0 | 5.0 | 0.00 | 0.13 | 0.13 | 69 | 1007.4 |
| 20260902185225 | 83 | 84 | 0.0 | 4.0 | 0.00 | 0.13 | 0.13 | 69 | 1007.4 |
| 20260902183217 | 82 | 96 | 2.0 | 7.0 | 0.00 | 0.13 | 0.13 | 73 | 1007.7 |
| 20260902183102 | 81 | 91 | 3.0 | 7.0 | 0.00 | 0.13 | 0.13 | 73 | 1007.8 |
| 20260902182201 | 81 | 95 | 2.0 | 7.0 | 0.00 | 0.13 | 0.13 | 73 | 1007.5 |
| 20260902181502 | 80 | 67 | 1.0 | 8.0 | 0.00 | 0.13 | 0.13 | 73 | 1007.8 |
| 20260902181141 | 80 | 82 | 3.0 | 6.0 | 0.00 | 0.13 | 0.13 | 72 | 1007.7 |
| 20260902180146 | 80 | 102 | 2.0 | 8.0 | 0.00 | 0.13 | 0.13 | 73 | 1007.8 |
| 20260902180005 | 80 | 134 | 2.0 | 9.0 | 0.00 | 0.13 | 0.13 | 74 | 1007.9 |
| 20260902175152 | 80 | 80 | 3.0 | 9.0 | 0.00 | 0.13 | 0.13 | 74 | 1008.0 |
| 20260902174605 | 79 | 93 | 2.0 | 10.0 | 0.00 | 0.13 | 0.13 | 75 | 1008.1 |
| 20260902174153 | 79 | 101 | 3.0 | 9.0 | 0.00 | 0.13 | 0.13 | 75 | 1008.0 |
| 20260902173154 | 79 | 41 | 2.0 | 6.0 | 0.00 | 0.13 | 0.13 | 74 | 1008.1 |
| 20260902173003 | 79 | 62 | 1.0 | 7.0 | 0.00 | 0.13 | 0.13 | 75 | 1008.3 |
| 20260902172206 | 79 | 132 | 2.0 | 6.0 | 0.00 | 0.13 | 0.13 | 74 | 1008.4 |
| 20260902171609 | 79 | 77 | 2.0 | 4.0 | 0.00 | 0.13 | 0.13 | 75 | 1008.5 |
| 20260902170012 | 79 | 125 | 1.0 | 4.0 | 0.00 | 0.13 | 0.13 | 74 | 1008.8 |
| 20260902170003 | 78 | 125 | 1.0 | 5.0 | 0.00 | 0.13 | 0.13 | 74 | 1008.9 |
| 20260902165009 | 78 | 127 | 1.0 | 3.0 | 0.00 | 0.13 | 0.13 | 76 | 1009.0 |
| 20260902164502 | 78 | 248 | 1.0 | 6.0 | 0.00 | 0.13 | 0.13 | 77 | 1009.0 |
| 20260902164029 | 78 | 245 | 2.0 | 5.0 | 0.00 | 0.13 | 0.13 | 75 | 1008.9 |
| 20260902163104 | 77 | 148 | 1.0 | 7.0 | 0.00 | 0.13 | 0.13 | 76 | 1008.8 |
| 20260902161503 | 77 | 80 | 3.0 | 5.0 | 0.00 | 0.13 | 0.13 | 77 | 1008.5 |
| 20260902160722 | 77 | 96 | 1.0 | 5.0 | 0.00 | 0.13 | 0.13 | 77 | 1008.4 |
| 20260902160117 | 76 | 184 | 0.0 | 6.0 | 0.00 | 0.13 | 0.13 | 77 | 1008.7 |
| 20260902155658 | 77 | 127 | 1.0 | 5.0 | 0.00 | 0.13 | 0.13 | 78 | 1008.5 |
| 20260902154719 | 76 | 81 | 3.0 | 6.0 | 0.00 | 0.13 | 0.13 | 78 | 1008.5 |
| 20260902154502 | 75 | 69 | 4.0 | 7.0 | 0.00 | 0.13 | 0.13 | 78 | 1008.5 |
| 20260902153702 | 76 | 124 | 3.0 | 10.0 | 0.00 | 0.13 | 0.13 | 79 | 1008.3 |
| 20260902153103 | 75 | 82 | 4.0 | 11.0 | 0.00 | 0.13 | 0.13 | 79 | 1008.2 |
| 20260902152650 | 75 | 116 | 4.0 | 10.0 | 0.00 | 0.13 | 0.13 | 80 | 1008.1 |
| 20260902151647 | 74 | 101 | 3.0 | 10.0 | 0.00 | 0.13 | 0.13 | 82 | 1008.2 |
| 20260902151503 | 73 | 87 | 2.0 | 11.0 | 0.00 | 0.13 | 0.13 | 80 | 1008.2 |
| 20260902150703 | 73 | 72 | 6.0 | 10.0 | 0.00 | 0.13 | 0.13 | 81 | 1008.0 |
| 20260902150104 | 73 | 72 | 6.0 | 9.0 | 0.00 | 0.13 | 0.13 | 81 | 1008.0 |
| 20260902144502 | 72 | 75 | 4.0 | 7.0 | 0.00 | 0.14 | 0.13 | 81 | 1008.2 |
| 20260902143449 | 72 | 96 | 3.0 | 6.0 | 0.00 | 0.13 | 0.13 | 83 | 1008.1 |
| 20260902143103 | 71 | 78 | 2.0 | 7.0 | 0.00 | 0.14 | 0.13 | 83 | 1008.3 |
| 20260902142413 | 72 | 70 | 2.0 | 5.0 | 0.00 | 0.13 | 0.13 | 83 | 1008.3 |
| 20260902141501 | 71 | 91 | 3.0 | 6.0 | 0.00 | 0.14 | 0.13 | 82 | 1008.5 |
| 20260902141402 | 71 | 98 | 2.0 | 5.0 | 0.00 | 0.14 | 0.13 | 82 | 1008.5 |
| 20260902140346 | 71 | 107 | 2.0 | 8.0 | 0.00 | 0.14 | 0.13 | 83 | 1008.6 |
| 20260902134503 | 69 | 91 | 5.0 | 8.0 | 0.00 | 0.14 | 0.13 | 86 | 1008.5 |
| 20260902134136 | 69 | 91 | 4.0 | 8.0 | 0.00 | 0.14 | 0.13 | 85 | 1008.3 |
| 20260902133109 | 69 | 71 | 4.0 | 8.0 | 0.00 | 0.14 | 0.13 | 87 | 1008.4 |
| 20260902131502 | 68 | 103 | 2.0 | 7.0 | 0.00 | 0.14 | 0.13 | 88 | 1008.5 |
| 20260902130900 | 68 | 74 | 3.0 | 9.0 | 0.00 | 0.14 | 0.13 | 88 | 1008.5 |
| 20260902125914 | 67 | 124 | 4.0 | 9.0 | 0.00 | 0.14 | 0.13 | 89 | 1008.5 |
| 20260902124854 | 67 | 103 | 3.0 | 8.0 | 0.00 | 0.14 | 0.13 | 90 | 1008.4 |
| 20260902124502 | 66 | 99 | 3.0 | 6.0 | 0.00 | 0.14 | 0.13 | 90 | 1008.4 |
| 20260902123911 | 66 | 104 | 2.0 | 5.0 | 0.00 | 0.14 | 0.13 | 91 | 1008.4 |
| 20260902123111 | 65 | 66 | 1.0 | 7.0 | 0.00 | 0.14 | 0.13 | 91 | 1008.4 |
| 20260902121730 | 65 | 95 | 5.0 | 9.0 | 0.00 | 0.14 | 0.13 | 92 | 1008.1 |
| 20260902121606 | 65 | 87 | 4.0 | 10.0 | 0.00 | 0.14 | 0.13 | 92 | 1008.2 |
| 20260902120751 | 65 | 131 | 5.0 | 9.0 | 0.00 | 0.14 | 0.13 | 92 | 1008.0 |
| 20260902120002 | 65 | 103 | 6.0 | 10.0 | 0.00 | 0.14 | 0.13 | 92 | 1008.2 |
| 20260902115714 | 65 | 98 | 4.0 | 9.0 | 0.00 | 0.14 | 0.13 | 92 | 1008.2 |
| 20260902114704 | 65 | 91 | 4.0 | 8.0 | 0.00 | 0.14 | 0.13 | 93 | 1008.2 |
| 20260902114605 | 65 | 96 | 6.0 | 9.0 | 0.00 | 0.14 | 0.13 | 93 | 1008.3 |
| 20260902113656 | 65 | 120 | 1.0 | 7.0 | 0.00 | 0.14 | 0.13 | 93 | 1008.5 |
| 20260902113002 | 65 | 84 | 1.0 | 8.0 | 0.00 | 0.14 | 0.13 | 93 | 1008.7 |
| 20260902112702 | 66 | 84 | 3.0 | 7.0 | 0.00 | 0.14 | 0.13 | 93 | 1008.6 |
| 20260902111606 | 65 | 99 | 4.0 | 7.0 | 0.00 | 0.14 | 0.13 | 93 | 1008.3 |